Weather Roundup
Issued by NWS Corpus Christi, TX

Home | Current Version | Previous Version | Text Only | Print | Product List | Glossary On
Versions: 1 2 3 4 5 6 7 8 9 10 11 12 13 14 15 16 17 18 19 20 21 22 23 24 25 26 27 28 29 30 31 32 33 34 35 36 37 38 39 40 41 42 43 44 45 46 47 48 49 50
231
ASUS44 KCRP 301510
HRRCRP

SOUTH TEXAS REGIONAL WEATHER ROUNDUP
NATIONAL WEATHER SERVICE CORPUS CHRISTI TX
1000 AM CDT THU MAR 30 2017


TXZ229>244-301600-
...CORPUS CHRISTI AREA OBSERVATIONS...

CITY           SKY/WX    TMP DP  RH WIND       PRES   REMARKS
CORPUS CHRISTI CLOUDY    64  48  56 N15G24    29.94S
NAS CORPUS CHR CLOUDY    67  49  52 N20       29.94S
ROCKPORT       CLOUDY    63  48  58 N15       29.95R
KINGSVILLE NAS PTSUNNY   68  48  48 NW14G25   29.96R
ALICE          PTSUNNY   66  45  46 N12       29.96R
ORANGE GROVE   MOSUNNY   66  47  50 N18       29.96R
FALFURRIAS     SUNNY     66  44  43 NW14G20   29.96S
$$

...VICTORIA AREA OBSERVATIONS...

CITY           SKY/WX    TMP DP  RH WIND       PRES   REMARKS
VICTORIA       PTSUNNY   64  49  57 N16       29.93R
BEEVILLE       FAIR      64  49  57 NW10G18   29.95R
PLEASANTON     SUNNY     63  45  52 NW9G17    29.98S HAZE
SAN ANTONIO    MOSUNNY   62  44  51 NW13      29.96F
$$

...LAREDO AREA OBSERVATIONS...

CITY           SKY/WX    TMP DP  RH WIND       PRES   REMARKS
LAREDO         SUNNY     66  44  45 N8        30.02S
COTULLA        SUNNY     65  43  44 NW5       30.00R
DEL RIO        SUNNY     65  44  46 NW6       29.99R
MCALLEN        SUNNY     73  45  36 NW15G26   29.96R
HEBBRONVILLE   SUNNY     64  41  42 N14G20    30.00S
$$

...OTHER TEXAS OBSERVATIONS...

CITY           SKY/WX    TMP DP  RH WIND       PRES   REMARKS
BROWNSVILLE    SUNNY     73  49  42 N15G23    29.94R
HOUSTON        CLOUDY    63  48  58 NW13      29.92R
COL. STATION   SUNNY     62  48  60 NW14      29.91R
AUSTIN         MOSUNNY   64  47  53 N10       29.92F
WACO           SUNNY     62  47  57 W8        29.89F
FORT WORTH     MOSUNNY   61  44  53 W16G24    29.84F
WICHITA FALLS  MOSUNNY   55  43  63 W12       29.85R
LUBBOCK        MOSUNNY   53  41  63 W16G22    29.89F
EL PASO        MOSUNNY   53  30  41 S9        30.03R
$$

...MARINE OBSERVATIONS...

STATION/POSITION TIME  SKY/WX   TEMP    WIND        PRES    VSBY  WAVE   SWELL
                                AIR SEA DIR/SP/G                  HT/PER HT/PER
                 (UTC)          (F)     (DEG/KT/KT) (MB)    (MI)  (FT/S) (FT/S)
PORT ARANSAS     1500            63 72  330/ 15/ 18 1013.6R
BUOY 90 E PORT A 1350            68 72  360/ 19/ 23 1010.6          6/ 9   3/ 9
BUOY 45 SE BAFFI 1350            68     340/ 23/ 29 1011.4          7/ 9   3/ 9
BUOY 200 E PT IS 1350            76 77  140/ 10/ 10 1009.8          5/ 8   5/ 8
BUOY 15 E GALVES 1350            64 72  340/ 21/ 27 1011.0          4/ 8   2/ 8
$$




USA.gov is the U.S. government's official web portal to all federal, state and local government web resources and services.